Location: Caltech
(34.1382°N, 118.1253°W)
Time: 03:22:42
(UTC-07:00)

Uosat F - Visible Passes

Search period start: 01 October 2016 00:00
Search period end: 11 October 2016 00:00
Orbit: 751 x 761 km, 98.8° (Epoch: 30 September)

Date Brightness Start Highest point End Pass type
(mag) Time Alt. Az. Time Alt. Az. Time Alt. Az.
01 Oct 13.5 06:21:32 10° NE 06:25:56 29° E 06:30:17 10° SSE visible
01 Oct 13.5 19:09:57 10° SSW 19:14:08 27° W 19:18:22 10° NW visible
02 Oct 14.7 05:44:50 10° ENE 05:46:11 11° E 05:47:31 10° ESE visible
03 Oct 14.2 19:30:57 10° SW 19:34:09 17° W 19:37:23 10° NW visible
04 Oct 14.2 06:02:47 10° NE 06:06:15 18° E 06:09:41 10° SE visible
04 Oct 12.5 18:49:45 10° S 18:54:30 44° W 18:59:17 10° NNW visible
06 Oct 13.5 06:21:53 10° NE 06:26:15 29° E 06:30:37 10° SSE visible
06 Oct 13.5 19:10:14 10° SSW 19:14:28 27° W 19:18:43 10° NW visible
07 Oct 14.8 05:45:16 10° ENE 05:46:30 11° E 05:47:45 10° ESE visible
08 Oct 14.2 19:31:14 10° SW 19:34:28 17° W 19:37:44 10° NW visible
09 Oct 14.2 06:03:08 10° NE 06:06:34 18° E 06:09:59 10° SE visible
09 Oct 12.5 18:50:03 10° S 18:54:49 44° W 18:59:37 10° NNW visible
10 Oct 14.7 19:54:05 10° W 19:54:33 10° W 19:55:01 10° W visible
